{"data":{"norad_id":58648,"epoch":"2026-09-19T23:33:49.253184Z","epoch_age_seconds":59143,"freshness":"FRESH","line1":"1 58648U 23205D   26262.98182006  .00003560  00000+0  13499-3 0  9997","line2":"2 58648  97.3390 282.2165 0007087  15.3226 344.8227 15.27497493151975","mean_motion":15.27497493,"eccentricity":0.0007087,"inclination_deg":97.339,"raan_deg":282.2165,"arg_perigee_deg":15.3226,"mean_anomaly_deg":344.8227,"bstar":0.00013499,"rev_number":15197,"period_min":94.271840484127,"perigee_km":478.43346511733,"apogee_km":488.15886048229,"semimajor_km":6861.4331627998,"source":"CELESTRAK","updated_at":"2026-09-20T09:00:33.254703Z"}}